Вернуться в каталог

JILIN-01 KUANFU 01

АктивенНаукаSSO
NORAD 45016·PAYLOAD·🇨🇳 China

Запущен Jan 15, 2020 с Taiyuan Satellite Launch Center

Loading…

Ближайшие Пролёты (ближайшие 24 часа)

TLE

СвежийSource: Space-Track

Эпоха: Sep 14, 2026, 14:58 UTC

1 45016U 20003A   26257.62397564  .00002242  00000-0  13741-3 0  9994
2 45016  97.4956 329.8226 0009597   4.7678 355.3641 15.11145614368836

Отслеживайте JILIN-01 KUANFU 01 в реальном времени с AllMySat

Download on the App Store